Wetterdaten Frühling 2020

Datum T max T min Regen
01.03.2020 12.4 °C 5.3 °C 0 mm
02.03.2020 10.2 °C 1.8 °C 6.4 mm
03.03.2020 6.4 °C 1.1 °C 1.6 mm
04.03.2020 8.2 °C -0.6 °C 0 mm
05.03.2020 7.5 °C 1.2 °C 7.2 mm
06.03.2020 7.7 °C 3.3 °C 6 mm
07.03.2020 7.4 °C 2.2 °C 0 mm
08.03.2020 11.2 °C 0.2 °C 0 mm
09.03.2020 9.2 °C 4.1 °C 2.2 mm
10.03.2020 10.3 °C 3.9 °C 8 mm
11.03.2020 17 °C 10.3 °C 0 mm
12.03.2020 15.2 °C 6.8 °C 1.4 mm
13.03.2020 10.7 °C 3.7 °C 0.2 mm
14.03.2020 10.2 °C 0.2 °C 0 mm
15.03.2020 14.8 °C -0.4 °C 0 mm
16.03.2020 18.1 °C 1.6 °C 0 mm
17.03.2020 16.6 °C 7.3 °C 0.4 mm
18.03.2020 17.2 °C 3.4 °C 0 mm
19.03.2020 18.3 °C 5.9 °C 0 mm
20.03.2020 17.4 °C 4.7 °C 0 mm
21.03.2020 9.2 °C 1.9 °C 14.2 mm
22.03.2020 7.8 °C -0.6 °C 0.2 mm
23.03.2020 6.6 °C -2.1 °C 0 mm
24.03.2020 7.6 °C -3.3 °C 0 mm
25.03.2020 8.1 °C -2.3 °C 0 mm
26.03.2020 8.8 °C -1.7 °C 0 mm
27.03.2020 15.6 °C -1.1 °C 0 mm
28.03.2020 16.9 °C 0.7 °C 0 mm
29.03.2020 9.2 °C 1.8 °C 2.4 mm
30.03.2020 6.2 °C -1.7 °C 0 mm
31.03.2020 7.7 °C -3.4 °C 0 mm
01.04.2020 10.2 °C -4.3 °C 0 mm
02.04.2020 12.7 °C -2.7 °C 0 mm
03.04.2020 12.8 °C 0.4 °C 0 mm
04.04.2020 14.8 °C -0.3 °C 0 mm
05.04.2020 18.1 °C 1 °C 0 mm
07.04.2020 22.3 °C 3.5 °C 0 mm
08.04.2020 21.3 °C 4.6 °C 0 mm
09.04.2020 22.3 °C 4.7 °C 0 mm
10.04.2020 21.8 °C 5.1 °C 0 mm
11.04.2020 20.7 °C 5.1 °C 0 mm
12.04.2020 22.1 °C 6.5 °C 0 mm
13.04.2020 18.5 °C 4.3 °C 0 mm
14.04.2020 8.6 °C -1.3 °C 0 mm
15.04.2020 17.3 °C -0.3 °C 0 mm
16.04.2020 21.8 °C 3.1 °C 0 mm
17.04.2020 23.1 °C 7.7 °C 0 mm
18.04.2020 22.8 °C 8.8 °C 0 mm
19.04.2020 19.8 °C 8.9 °C 0 mm
20.04.2020 18.3 °C 8.3 °C 0 mm
21.04.2020 20.7 °C 8.1 °C 0 mm
22.04.2020 20.9 °C 5.9 °C 0 mm
23.04.2020 20.5 °C 5 °C 0 mm
24.04.2020 22.1 °C 4.9 °C 0 mm
25.04.2020 18 °C 7.8 °C 0 mm
26.04.2020 19.4 °C 3.7 °C 0 mm
27.04.2020 21.4 °C 9.7 °C 0.8 mm
28.04.2020 17.2 °C 8.8 °C 2.4 mm
29.04.2020 16.5 °C 10.9 °C 0.4 mm
30.04.2020 15.6 °C 9.9 °C 0.6 mm
02.05.2020 14.8 °C 6.7 °C 0.2 mm
03.05.2020 16.3 °C 5 °C 0 mm
04.05.2020 18 °C 6.9 °C 3.2 mm
05.05.2020 15.2 °C 7.1 °C 0 mm
06.05.2020 15.5 °C 2.2 °C 0 mm
07.05.2020 20.9 °C 2.8 °C 0 mm
08.05.2020 23.4 °C 7.8 °C 0 mm
09.05.2020 21 °C 11.6 °C 0 mm
10.05.2020 23.3 °C 12.3 °C 0.4 mm
11.05.2020 16.4 °C 3.1 °C 13.2 mm
12.05.2020 11.9 °C 0.3 °C 0.2 mm
13.05.2020 12.3 °C 4.2 °C 4.2 mm
14.05.2020 12.6 °C 7.1 °C 0.6 mm
15.05.2020 15.4 °C 8.6 °C 0 mm
16.05.2020 18.3 °C 3.7 °C 0 mm
17.05.2020 18.9 °C 4.8 °C 0 mm
18.05.2020 22 °C 6 °C 0 mm
19.05.2020 23.8 °C 8.6 °C 0 mm
20.05.2020 22.2 °C 10.2 °C 0 mm
21.05.2020 23.4 °C 10.5 °C 0 mm
22.05.2020 25.1 °C 12.2 °C 0 mm
23.05.2020 20.2 °C 8.7 °C 6.6 mm
24.05.2020 17.8 °C 8 °C 0 mm
25.05.2020 18.9 °C 10.9 °C 0 mm
26.05.2020 18.7 °C 7.3 °C 0 mm
27.05.2020 21.4 °C 6.3 °C 0 mm
28.05.2020 20 °C 10 °C 0 mm
29.05.2020 19.7 °C 6.4 °C 0 mm
30.05.2020 19 °C 6.4 °C 0 mm
31.05.2020 19.8 °C 6.7 °C 0 mm
 Hinweis zur Datenqualität
∅ Temperatur

10.3 °C

Abweichung vom Mittel

+0.3 °C

Niederschlag

83 mm

Abweichung vom Mittel

47 %

25.1 °C

Lufttemperatur
22.05.2020

1034 hPa

Luftdruck
26.05.2020

45 km/h

Windböen
01.03.2020

83 mm

Niederschlag
 

-4.3 °C

Lufttemperatur
01.04.2020

-2.8 °C

Bodentemperatur 5cm
01.04.2020

988 hPa

Luftdruck
02.03.2020
 Hinweis zur Datenqualität